DMSP 5D-2 F13 DEB, 40673

Orbit data source: Space-Track

DMSP 5D-2 F13 DEB, 40673 is space debris in SSO originally from a launch on Fri, 24 Mar 1995 UTC launched from the Air Force Western Test Range (AFWTR). Debris objects in space refer to the collection of defunct objects orbiting the Earth. Examples of debris include non-operational satellites, rocket bodies, and fragments generated from explosions, collisions, or faulty payload assembly.

Loading next visibility...
DMSP 5D-2 F13 DEB details
Identifier
40673, 1995-015FM
Orbit
SSO
Last TLE update3 days ago
Origin
Flag of USUSAF SMC (US)
ManufacturerUnknown
MissionSpacecraft
Bus & MotorUnknown
MassUnknown
Launch date (UTC)
1995-03-24 (30 years ago)
Launch vehicleUnknown
Launch site
Air Force Western Test Range (AFWTR)
Object type
Payload
Rocket body
Debris
Shape & HBRUnknown
Radar Cross SectionSmall (<0.1 m²)

Expand to show TLE details & history

TLE from 3 days ago
0 DMSP 5D-2 F13 DEB
1 40673U 95015FM  24358.00022177  .00000968  00000-0  45736-3 0  9992
2 40673  98.7196   9.6832 0023783 150.6465 209.6054 14.21891230503803
Epoch: 2024-12-23T00:00Z
Definitive object data (Epoch: 2024-12-23T00:00:19.16Z)
Latitude-0.00005°
Longitude-82.42559°
Altitude836.776 km
Speed7.427 km/s
True Right ascension00h 38m 43s
True Declination0° 00' 00"
Sunlit
Object was in daylight at TLE epoch
Visualization TLE readout
Latitude-4.24588°
Longitude-78.37002°
Altitude836.492 km
Speed7.427 km/s
Apparent Right ascension23h 47m 04s
Apparent Declination-22° 08' 42"
Sunlit
Object is in daylight
Visualization observer readout
Local Sidereal Time10:05:33
Azimuth301.974° NW
Elevation-62.093°
Doppler factor1
Orbital elements
Apogee altitude833.231 km
Perigee altitude799.01 km
Semi-major axis7,194.257 km
Eccentricity0.0023783
Inclination98.7196°
RAAN9.6832°
Arg. of periapsis150.6465°
True anomaly209.47111°
Mean anomaly209.6054°
Eccentric anomaly209.53822°
Mean motion3.55684 °/min
BSTAR0.00045736
Orbital period101.21 mins
Loading maneuver chart data...

DMSP 5D-2 F13 DEB Visibility forecast

Observer location: undefined°, undefined

Span
Click to sort rows by Start time (UTC) header in descending order
Start Az.
Max El. time (UTC)
Max El. Az.
Max El.
End time (UTC)
End Az.
8 mins2024-12-26 13:02:19.115Z38.505° NE2024-12-26 13:06:19.115Z91.036° ESE25.223°2024-12-26 13:10:19.115Z149.82° SSE
7 mins2024-12-26 14:43:19.115Z346.273° N2024-12-26 14:46:19.115Z298.863° NW29.174°2024-12-26 14:50:19.115Z234.155° WSW
8 mins2024-12-27 00:24:19.115Z135.368° SSE2024-12-27 00:28:19.115Z62.623° ENE35.022°2024-12-27 00:32:19.115Z2.702° NNE
7 mins2024-12-27 02:05:19.115Z225.079° WSW2024-12-27 02:08:19.115Z266.241° W20.714°2024-12-27 02:12:19.115Z315.888° NNW
|